Date Time,Air Temp,Sky Temp,Clarity,Light Level,Rain Sensor,Readings
2009-11-02 00:00:04,21.7,-13.3,35.0,0.7,2.3,111
2009-11-02 00:05:04,21.5,-17.5,39.0,0.9,2.2,112
2009-11-02 00:10:04,21.4,-20.6,41.9,1.1,2.3,111
2009-11-02 00:15:04,21.2,-21.8,43.0,1.1,2.3,112
2009-11-02 00:20:04,21.1,-22.6,43.7,1.2,2.3,112
2009-11-02 00:25:04,21.0,-22.2,43.2,1.2,2.3,111
2009-11-02 00:30:04,20.9,-21.6,42.5,1.2,2.3,112
2009-11-02 00:35:04,20.9,-21.6,42.5,1.2,2.3,111
2009-11-02 00:40:04,20.8,-21.1,41.9,1.2,2.3,112
2009-11-02 00:45:04,20.7,-20.1,40.7,1.2,2.3,111
2009-11-02 00:50:04,20.7,-16.5,37.2,1.0,2.3,112
2009-11-02 00:55:04,20.6,-17.9,38.5,1.1,2.3,111
2009-11-02 01:00:04,20.6,-13.9,34.5,0.8,2.3,112
2009-11-02 01:05:04,20.6,-11.6,32.2,0.6,2.3,112
2009-11-02 01:10:04,20.7,-15.0,35.7,1.1,2.3,111
2009-11-02 01:15:04,20.7,-19.4,40.0,1.1,2.3,112
2009-11-02 01:20:04,20.6,-20.0,40.7,1.1,2.3,112
2009-11-02 01:25:04,20.6,-20.5,41.0,1.0,2.3,111
2009-11-02 01:30:04,20.5,-23.4,43.9,1.2,2.3,112
2009-11-02 01:35:04,20.4,-23.9,44.3,1.2,2.3,112
2009-11-02 01:40:04,20.4,-24.1,44.5,1.2,2.3,111
2009-11-02 01:45:04,20.3,-24.1,44.4,1.2,2.3,111
2009-11-02 01:50:04,20.3,-24.2,44.4,1.2,2.3,111
2009-11-02 01:55:04,20.2,-23.7,43.9,1.1,2.3,112
2009-11-02 02:00:04,20.1,-23.7,43.9,1.1,2.3,111
2009-11-02 02:05:04,20.1,-23.5,43.5,1.1,2.3,111
2009-11-02 02:10:04,20.0,-23.5,43.5,1.1,2.3,111
2009-11-02 02:15:04,19.9,-23.5,43.4,1.1,2.3,112
2009-11-02 02:20:04,19.5,-23.7,43.2,1.1,2.2,111
2009-11-02 02:25:04,19.9,-23.8,43.7,1.1,2.2,111
2009-11-02 02:30:04,19.8,-23.8,43.7,1.1,2.1,112
2009-11-02 02:35:04,19.8,-24.0,43.8,1.1,2.1,111
2009-11-02 02:40:04,19.8,-24.1,43.8,1.1,2.1,112
2009-11-02 02:45:04,19.7,-24.0,43.7,1.0,2.2,111
2009-11-02 02:50:04,19.7,-23.9,43.6,1.0,2.2,112
2009-11-02 02:55:04,19.7,-24.1,43.7,1.0,2.3,111
2009-11-02 03:00:04,19.6,-24.0,43.6,1.0,2.3,111
2009-11-02 03:05:04,19.5,-24.4,43.9,1.0,2.3,112
2009-11-02 03:10:04,19.4,-24.2,43.6,1.0,2.3,111
2009-11-02 03:15:04,19.4,-24.5,43.9,1.0,2.3,111
2009-11-02 03:20:04,19.3,-24.6,43.9,0.9,2.3,112
2009-11-02 03:25:04,19.3,-24.8,44.1,0.9,2.3,111
2009-11-02 03:30:04,19.3,-24.7,44.0,0.9,2.3,112
2009-11-02 03:35:04,19.3,-25.0,44.2,0.9,2.4,111
2009-11-02 03:40:04,19.2,-24.9,44.1,0.9,2.5,112
2009-11-02 03:45:04,19.2,-25.1,44.3,0.9,2.5,112
2009-11-02 03:50:04,19.2,-25.2,44.4,0.9,2.4,111
2009-11-02 03:55:04,19.1,-25.1,44.2,0.8,2.3,112
2009-11-02 04:00:04,19.1,-25.2,44.3,0.8,2.3,112
2009-11-02 04:05:04,19.0,-25.3,44.3,0.8,2.3,111
2009-11-02 04:10:04,19.0,-25.4,44.4,0.8,2.3,112
2009-11-02 04:15:04,18.9,-25.2,44.1,0.8,2.3,112
2009-11-02 04:20:04,18.8,-25.0,43.8,0.7,2.3,111
2009-11-02 04:25:04,18.8,-25.2,44.0,0.7,2.3,112
2009-11-02 04:30:04,18.7,-25.0,43.8,0.7,2.3,112
2009-11-02 04:35:04,18.7,-24.9,43.6,0.7,2.3,112
2009-11-02 04:40:04,18.6,-24.8,43.4,0.6,2.3,111
2009-11-02 04:45:04,18.2,-24.8,43.0,0.6,2.3,112
2009-11-02 04:50:04,18.5,-24.9,43.3,0.6,2.3,111
2009-11-02 04:55:04,18.4,-24.8,43.3,0.5,2.3,112
2009-11-02 05:00:04,18.4,-24.7,43.1,0.5,2.3,112
2009-11-02 05:05:04,18.3,-24.7,43.0,0.5,2.3,111
2009-11-02 05:10:04,18.4,-24.7,43.0,0.4,2.3,111
2009-11-02 05:15:04,18.4,-24.9,43.2,0.4,2.3,112
2009-11-02 05:20:04,18.4,-24.7,43.1,0.3,2.3,112
2009-11-02 05:25:04,18.4,-24.3,42.7,0.3,2.3,111
2009-11-02 05:30:04,18.4,-24.4,42.8,0.3,2.3,112
2009-11-02 05:35:04,18.4,-24.6,43.1,0.2,2.3,112
2009-11-02 05:40:04,18.4,-24.7,43.1,0.2,2.3,111
2009-11-02 05:45:04,18.4,-24.6,43.0,0.2,2.3,111
2009-11-02 05:50:04,18.4,-24.6,43.0,0.2,2.3,112
2009-11-02 05:55:04,18.4,-24.5,42.9,0.2,2.4,111
2009-11-02 06:00:04,18.4,-24.5,42.9,0.2,2.5,112
2009-11-02 06:05:04,18.3,-24.6,42.9,0.3,2.5,111
2009-11-02 06:10:04,18.3,-24.5,42.8,0.6,2.5,112
2009-11-02 06:15:04,18.3,-24.6,42.9,1.1,2.5,111
2009-11-02 06:20:04,18.3,-24.4,42.7,2.2,2.6,112
2009-11-02 06:25:04,18.3,-24.4,42.7,4.4,2.6,111
2009-11-02 06:30:04,18.2,-24.6,42.8,8.3,2.6,112
2009-11-02 06:35:04,18.2,-24.5,42.7,13.9,2.4,112
2009-11-02 06:40:04,18.2,-24.3,42.5,19.9,2.5,111
2009-11-02 06:45:04,18.2,-24.4,42.6,24.6,2.4,112
2009-11-02 06:50:04,18.3,-24.4,42.7,27.7,2.3,112
2009-11-02 06:55:04,18.3,-24.6,42.9,29.4,2.3,111
2009-11-02 07:00:04,18.2,-24.7,42.9,30.5,2.3,111
2009-11-02 07:05:04,18.1,-24.6,42.8,31.1,2.4,112
2009-11-02 07:10:04,18.1,-24.6,42.7,31.4,2.6,111
2009-11-02 07:15:04,18.2,-24.8,43.0,31.7,2.6,112
2009-11-02 07:20:04,18.2,-24.9,43.1,31.9,2.7,111
2009-11-02 07:25:04,18.1,-25.1,43.2,32.0,2.7,112
2009-11-02 07:30:04,18.1,-25.0,43.2,32.0,2.6,112
2009-11-02 07:35:04,18.1,-24.9,43.0,32.1,2.5,111
2009-11-02 07:40:04,18.2,-24.7,42.9,32.2,2.4,112
2009-11-02 07:45:04,18.2,-25.0,43.3,32.2,2.4,112
2009-11-02 07:50:04,18.1,-25.2,43.3,32.2,2.5,112
2009-11-02 07:55:04,18.2,-25.3,43.5,32.2,2.6,112
2009-11-02 08:00:04,18.2,-25.6,43.8,32.3,2.6,111
2009-11-02 08:05:04,18.2,-25.8,44.0,32.3,2.6,112
2009-11-02 08:10:04,18.3,-25.8,44.0,32.3,2.6,111
2009-11-02 08:15:04,18.3,-26.0,44.3,32.3,2.6,112
2009-11-02 08:20:04,18.4,-26.3,44.7,32.3,2.5,111
2009-11-02 08:25:04,18.4,-26.4,44.8,32.3,2.4,111
2009-11-02 08:30:04,18.5,-26.4,44.9,32.3,2.3,112
2009-11-02 08:35:04,18.6,-26.4,45.0,32.4,2.3,112
2009-11-02 08:40:04,18.6,-26.6,45.2,32.4,2.3,111
2009-11-02 08:45:04,18.7,-26.6,45.3,32.4,2.3,112
2009-11-02 08:50:04,18.8,-26.3,45.1,32.4,2.3,111
2009-11-02 08:55:04,19.0,-26.1,45.1,32.4,2.3,111
2009-11-02 09:00:04,19.1,-26.0,45.1,32.4,2.3,112
2009-11-02 09:05:04,19.2,-25.9,45.1,32.4,2.3,111
2009-11-02 09:10:04,19.3,-25.9,45.1,32.4,2.3,112
2009-11-02 09:15:04,19.4,-25.8,45.2,32.4,2.3,111
2009-11-02 09:20:04,19.5,-25.6,45.1,32.4,2.3,111
2009-11-02 09:25:04,19.7,-25.5,45.2,32.4,2.3,112
2009-11-02 09:30:04,19.8,-25.5,45.3,32.4,2.3,112
2009-11-02 09:35:04,19.9,-25.4,45.3,32.4,2.4,111
2009-11-02 09:40:04,20.0,-25.0,45.1,32.4,2.3,112
2009-11-02 09:45:04,20.2,-24.7,44.9,32.4,2.3,111
2009-11-02 09:50:04,20.3,-25.0,45.3,32.4,2.3,112
2009-11-02 09:55:04,20.4,-24.6,45.0,32.4,2.2,112
2009-11-02 10:00:04,20.9,-24.0,44.9,32.6,2.3,111
2009-11-02 10:05:04,21.8,-23.7,45.5,32.6,2.3,111
2009-11-02 10:10:04,22.5,-24.0,46.5,32.6,2.3,112
2009-11-02 10:15:04,23.0,-23.4,46.4,32.6,2.2,111
2009-11-02 10:20:04,23.5,-22.9,46.5,32.6,2.3,112
2009-11-02 10:25:04,23.9,-23.7,47.6,32.6,2.4,112
2009-11-02 10:30:04,23.5,-23.2,46.7,32.6,2.3,111
2009-11-02 10:35:04,24.0,-22.2,46.2,32.6,2.3,112
2009-11-02 10:40:04,24.2,-22.4,46.6,32.6,2.3,111
2009-11-02 10:45:04,24.4,-21.9,46.3,32.6,2.3,112
2009-11-02 10:50:04,24.7,-20.9,45.6,32.6,2.3,111
2009-11-02 10:55:04,24.8,-22.1,46.9,32.6,2.3,112
2009-11-02 11:00:04,24.9,-22.4,47.2,32.6,2.3,111
2009-11-02 11:05:04,24.9,-21.2,46.1,32.6,2.3,112
2009-11-02 11:10:04,25.1,-19.3,44.4,32.6,2.3,112
2009-11-02 11:15:04,25.3,-19.4,44.7,32.6,2.3,111
2009-11-02 11:20:04,25.4,-20.8,46.2,32.6,2.3,112
2009-11-02 11:25:04,25.4,-18.4,43.8,32.6,2.3,112
2009-11-02 11:30:04,25.7,-18.2,43.9,32.6,2.3,111
2009-11-02 11:35:04,25.4,-19.8,45.2,32.5,2.3,112
2009-11-02 11:40:04,24.5,-19.2,43.7,32.6,2.3,111
2009-11-02 11:45:04,24.8,-18.3,43.2,32.6,2.3,112
2009-11-02 11:50:04,25.6,-12.9,38.5,32.6,2.3,111
2009-11-02 11:55:04,25.7,-14.0,39.6,32.6,2.3,111
2009-11-02 12:00:04,25.7,-19.3,45.0,32.6,2.3,112
2009-11-02 12:05:04,25.8,-19.6,45.4,32.6,2.3,112
2009-11-02 12:10:04,25.8,-20.4,46.1,32.6,2.3,112
2009-11-02 12:15:04,25.2,-19.1,44.3,32.6,2.3,111
2009-11-02 12:20:04,24.7,-15.6,40.3,32.6,2.3,112
2009-11-02 12:25:04,24.5,-16.6,41.1,32.6,2.3,111
2009-11-02 12:30:04,24.6,-14.4,39.0,32.6,2.3,112
2009-11-02 12:35:04,25.0,-14.3,39.3,32.6,2.3,111
2009-11-02 12:40:04,25.4,-15.9,41.3,32.6,2.3,112
2009-11-02 12:45:04,25.2,-14.8,40.0,32.6,2.3,111
2009-11-02 12:50:04,25.1,-15.0,40.0,32.6,2.3,112
2009-11-02 12:55:04,24.9,-14.7,39.7,32.6,2.3,111
2009-11-02 13:00:04,25.1,-9.8,34.8,32.6,2.3,112
2009-11-02 13:05:04,25.0,-15.5,40.5,32.6,2.3,112
2009-11-02 13:10:04,24.3,-5.6,29.9,32.5,2.3,111
2009-11-02 13:15:04,23.9,-1.6,25.5,32.5,2.3,112
2009-11-02 13:20:04,23.8,-5.6,29.4,32.6,2.3,112
2009-11-02 13:25:04,24.0,-6.6,30.6,32.6,2.3,111
2009-11-02 13:30:04,24.3,-7.3,31.7,32.6,2.3,112
2009-11-02 13:35:04,24.1,-13.9,38.0,32.6,2.3,111
2009-11-02 13:40:04,23.7,-16.3,40.0,32.6,2.3,112
2009-11-02 13:45:04,23.4,-15.5,38.9,32.6,2.3,111
2009-11-02 13:50:04,23.3,-16.5,39.8,32.6,2.3,112
2009-11-02 13:55:04,23.2,-15.0,38.2,32.6,2.3,112
2009-11-02 14:00:04,23.2,-12.5,35.8,32.6,2.3,111
2009-11-02 14:05:04,23.3,-12.1,35.4,32.6,2.3,111
2009-11-02 14:10:04,23.3,-12.1,35.4,32.6,2.3,112
2009-11-02 14:15:04,23.3,-12.6,35.9,32.6,2.3,111
2009-11-02 14:20:04,23.4,-11.4,34.8,32.6,2.3,112
2009-11-02 14:25:04,23.5,-11.9,35.4,32.6,2.3,112
2009-11-02 14:30:04,23.4,-11.9,35.3,32.6,2.3,111
2009-11-02 14:35:04,23.4,-11.4,34.8,32.6,2.3,111
2009-11-02 14:40:04,23.7,-11.1,34.7,32.6,2.3,112
2009-11-02 14:45:04,24.1,-10.9,35.0,32.6,2.3,112
2009-11-02 14:50:04,24.1,-5.4,29.5,32.6,2.3,111
2009-11-02 14:55:04,24.4,-9.1,33.6,32.6,2.3,112
2009-11-02 15:00:04,24.6,-10.4,35.0,32.6,2.3,112
2009-11-02 15:05:04,24.3,-6.2,30.5,32.5,2.3,111
2009-11-02 15:10:04,24.0,-13.3,37.3,32.5,2.3,111
2009-11-02 15:15:04,23.7,-19.3,43.1,32.5,2.3,112
2009-11-02 15:20:04,23.3,-18.8,42.1,32.5,2.3,112
2009-11-02 15:25:04,22.9,-16.2,39.0,32.4,2.3,111
2009-11-02 15:30:04,22.7,-12.0,34.6,32.4,2.4,112
2009-11-02 15:35:04,22.6,-16.0,38.6,32.3,2.4,111
2009-11-02 15:40:04,22.4,-17.2,39.7,32.3,2.3,112
2009-11-02 15:45:04,22.3,-20.3,42.6,32.3,2.3,112
2009-11-02 15:50:04,22.1,-21.7,43.7,32.3,2.3,111
2009-11-02 15:55:04,21.8,-22.3,44.2,32.3,2.2,112
2009-11-02 16:00:04,21.7,-22.8,44.4,32.2,2.2,111
2009-11-02 16:05:04,21.5,-22.1,43.6,32.2,2.3,112
2009-11-02 16:10:04,21.4,-20.2,41.6,32.1,2.3,112
2009-11-02 16:15:04,21.3,-17.3,38.6,32.0,2.3,111
2009-11-02 16:20:04,21.3,-14.3,35.5,31.9,2.3,112
2009-11-02 16:25:04,21.3,-10.9,32.1,31.6,2.3,112
2009-11-02 16:30:04,21.3,-8.2,29.6,31.3,2.3,111
2009-11-02 16:35:04,21.4,-6.6,28.0,30.7,2.3,113
2009-11-02 16:40:04,21.6,-5.9,27.4,29.9,2.3,111
2009-11-02 16:45:04,21.6,-5.0,26.6,28.8,2.3,112
2009-11-02 16:50:04,21.8,-4.4,26.2,26.9,2.3,112
2009-11-02 16:55:04,22.0,-4.5,26.4,23.0,2.3,112
2009-11-02 17:00:04,22.0,-4.7,26.7,18.0,2.3,112
2009-11-02 17:05:04,22.1,-4.6,26.7,12.8,2.3,112
2009-11-02 17:10:04,22.2,-4.6,26.8,8.9,2.2,112
2009-11-02 17:15:04,22.3,-5.9,28.2,5.9,2.1,111
2009-11-02 17:20:04,22.4,-8.0,30.4,3.7,2.2,112
2009-11-02 17:25:04,22.3,-11.0,33.3,2.0,2.1,111
2009-11-02 17:30:04,22.1,-10.8,32.9,1.0,2.1,112
2009-11-02 17:35:04,22.1,-9.9,32.0,0.5,2.1,112
2009-11-02 17:40:04,22.1,-5.0,27.1,0.3,2.3,111
2009-11-02 17:45:04,21.3,1.8,19.5,0.2,2.3,112
2009-11-02 17:50:04,18.4,2.7,15.7,0.1,5.2,111
2009-11-02 17:55:04,17.2,1.7,15.5,0.2,5.6,111
2009-11-02 18:00:04,16.6,1.2,15.3,0.1,6.3,111
2009-11-02 18:05:04,16.1,2.0,14.1,0.2,10.3,112
2009-11-02 18:10:04,15.7,1.7,14.0,0.2,3.5,111
2009-11-02 18:15:04,15.5,-0.3,15.9,0.2,2.7,112
2009-11-02 18:20:04,15.5,-0.5,16.0,0.2,2.4,111
2009-11-02 18:25:04,15.6,0.6,15.0,0.2,2.4,111
2009-11-02 18:30:04,15.7,1.0,14.7,0.2,2.6,112
2009-11-02 18:35:04,16.0,-3.0,19.0,0.3,2.4,111
2009-11-02 18:40:04,18.9,-10.9,29.8,0.2,2.4,112
2009-11-02 18:45:04,20.0,-2.2,22.2,0.3,2.4,111
2009-11-02 18:50:04,18.0,0.8,17.2,0.3,2.4,111
2009-11-02 18:55:04,16.7,0.8,15.8,0.3,2.3,112
2009-11-02 19:00:04,16.3,0.5,15.7,0.3,2.3,111
2009-11-02 19:05:04,16.1,0.9,15.2,0.3,2.3,111
2009-11-02 19:10:04,16.1,1.1,15.0,0.3,2.3,111
2009-11-02 19:15:04,15.8,1.7,14.1,0.3,2.3,112
2009-11-02 19:20:04,16.1,1.5,14.6,0.3,2.3,111
2009-11-02 19:25:04,16.1,1.9,14.2,0.4,2.4,111
2009-11-02 19:30:04,16.1,2.4,13.7,0.3,2.3,111
2009-11-02 19:35:04,16.2,2.8,13.3,0.4,2.3,111
2009-11-02 19:40:04,16.2,2.5,13.7,0.3,2.9,111
2009-11-02 19:45:04,16.1,3.3,12.9,0.2,3.2,112
2009-11-02 19:50:04,16.0,4.1,12.0,0.2,2.4,111
2009-11-02 19:55:04,16.0,3.3,12.7,0.3,2.5,111
2009-11-02 20:00:04,16.1,3.8,12.3,0.3,4.5,112
2009-11-02 20:05:04,16.2,8.3,7.8,0.2,10.2,111
2009-11-02 20:10:04,16.3,12.1,4.2,0.3,12.5,112
2009-11-02 20:15:04,16.4,13.9,2.5,0.2,11.5,111
2009-11-02 20:20:04,16.4,13.6,2.7,0.3,12.6,112
2009-11-02 20:25:04,16.3,12.1,4.2,0.5,2.4,111
2009-11-02 20:30:04,16.3,12.4,3.9,0.6,2.3,112
2009-11-02 20:35:04,16.3,13.0,3.3,0.5,2.5,111
2009-11-02 20:40:04,16.3,5.7,10.6,0.6,2.3,112
2009-11-02 20:45:04,16.3,1.6,14.7,0.6,2.3,111
2009-11-02 20:50:04,16.3,1.2,15.1,0.5,2.3,111
2009-11-02 20:55:04,16.4,-1.3,17.7,0.6,2.3,111
2009-11-02 21:00:04,18.6,-5.6,24.1,0.6,2.5,112
2009-11-02 21:05:04,20.2,-4.4,24.6,0.7,2.5,112
2009-11-02 21:10:04,20.4,-7.7,28.1,0.6,2.7,112
2009-11-02 21:15:04,21.1,-10.1,31.3,0.5,2.6,111
2009-11-02 21:20:04,21.2,-6.2,27.3,0.8,2.4,112
2009-11-02 21:25:04,21.0,-5.7,26.7,0.8,2.3,112
2009-11-02 21:30:04,21.0,-7.5,28.5,0.9,2.4,111
2009-11-02 21:35:04,21.0,-10.1,31.1,0.7,2.4,112
2009-11-02 21:40:04,21.3,-6.3,27.6,1.0,2.5,112
2009-11-02 21:45:04,21.6,-1.9,23.4,0.8,2.5,112
2009-11-02 21:50:04,20.2,2.5,17.7,0.5,2.5,111
2009-11-02 21:55:04,17.6,3.4,14.2,0.4,4.3,112
2009-11-02 22:00:04,16.8,6.9,9.9,0.3,11.0,111
2009-11-02 22:05:04,16.8,11.7,5.0,0.4,9.6,111
2009-11-02 22:10:04,16.6,11.1,5.5,0.5,4.5,112
2009-11-02 22:15:04,16.3,5.7,10.6,0.6,2.6,111
2009-11-02 22:20:04,16.2,-0.6,16.8,0.8,2.6,111
2009-11-02 22:25:04,16.1,1.7,14.4,0.8,2.6,112
2009-11-02 22:30:04,16.1,3.0,13.1,0.7,2.6,110
2009-11-02 22:35:04,16.1,4.2,11.9,0.5,2.6,112
2009-11-02 22:40:04,16.3,4.1,12.2,0.5,2.7,111
2009-11-02 22:45:04,16.4,3.8,12.6,0.4,2.5,112
2009-11-02 22:50:04,16.5,4.1,12.4,0.4,2.5,111
2009-11-02 22:55:04,16.6,3.4,13.1,0.5,2.5,112
2009-11-02 23:00:04,16.7,3.8,12.9,0.4,2.4,111
2009-11-02 23:05:04,16.7,3.9,12.8,0.4,2.6,111
2009-11-02 23:10:04,16.8,4.1,12.7,0.4,4.5,112
2009-11-02 23:15:04,16.5,5.1,11.4,0.5,3.6,111
2009-11-02 23:20:04,16.8,4.7,12.1,0.3,2.6,112
2009-11-02 23:25:04,16.8,4.7,12.0,0.4,2.5,112
2009-11-02 23:30:04,16.8,4.9,11.9,0.3,2.5,111
2009-11-02 23:35:04,16.8,4.9,11.9,0.3,2.8,112
2009-11-02 23:40:04,16.8,4.9,11.9,0.6,2.6,112
2009-11-02 23:45:04,16.9,5.0,11.9,0.5,2.7,112
2009-11-02 23:50:04,16.9,6.4,10.6,0.2,8.1,111
2009-11-02 23:55:04,16.9,6.0,11.0,0.1,6.3,112
